| time (UTC) | temp C | wind direction | speed KPH | gust KPH | rain 1hr cm | rain 24hr cm | rain mn cm | humidity % | barometer mb |
| 20260506233205 | 6 | 213 | 3.2 | 12.9 | 0.00 | 0.71 | 0.00 | 91 | 1010.5 |
| 20260506232706 | 6 | 233 | 4.8 | 16.1 | 0.00 | 0.71 | 0.00 | 91 | 1010.5 |
| 20260506231705 | 6 | 240 | 6.4 | 16.1 | 0.00 | 0.71 | 0.00 | 91 | 1010.5 |
| 20260506231205 | 6 | 264 | 6.4 | 19.3 | 0.00 | 0.71 | 0.00 | 91 | 1010.5 |
| 20260506230705 | 6 | 231 | 6.4 | 19.3 | 0.00 | 0.71 | 0.00 | 91 | 1010.6 |
| 20260506230205 | 6 | 260 | 4.8 | 19.3 | 0.00 | 0.71 | 0.00 | 91 | 1010.7 |
| 20260506225705 | 6 | 205 | 6.4 | 16.1 | 0.00 | 0.71 | 0.00 | 91 | 1010.6 |
| 20260506225205 | 6 | 257 | 8.0 | 16.1 | 0.00 | 0.71 | 0.00 | 91 | 1010.6 |
| 20260506224205 | 6 | 179 | 8.0 | 16.1 | 0.00 | 0.71 | 0.00 | 92 | 1010.7 |
| 20260506223705 | 6 | 214 | 6.4 | 16.1 | 0.00 | 0.71 | 0.00 | 92 | 1010.8 |
| 20260506223205 | 6 | 269 | 4.8 | 14.5 | 0.00 | 0.71 | 0.00 | 92 | 1010.7 |
| 20260506222705 | 6 | 243 | 6.4 | 14.5 | 0.00 | 0.71 | 0.00 | 91 | 1010.7 |
| 20260506221705 | 6 | 219 | 4.8 | 11.3 | 0.00 | 0.71 | 0.00 | 91 | 1010.7 |
| 20260506221205 | 6 | 287 | 4.8 | 9.7 | 0.00 | 0.71 | 0.00 | 92 | 1010.8 |
| 20260506220705 | 6 | 245 | 3.2 | 9.7 | 0.00 | 0.71 | 0.00 | 92 | 1010.8 |
| 20260506220205 | 6 | 235 | 1.6 | 4.8 | 0.00 | 0.71 | 0.71 | 92 | 1010.8 |
| 20260506215705 | 7 | 266 | 1.6 | 4.8 | 0.00 | 0.71 | 0.71 | 92 | 1010.7 |
| 20260506214706 | 7 | 258 | 3.2 | 8.0 | 0.00 | 0.71 | 0.71 | 92 | 1010.7 |
| 20260506214205 | 7 | 221 | 3.2 | 12.9 | 0.00 | 0.71 | 0.71 | 92 | 1010.6 |
| 20260506213705 | 7 | 233 | 4.8 | 12.9 | 0.00 | 0.71 | 0.71 | 92 | 1010.6 |
| 20260506213205 | 7 | 225 | 4.8 | 12.9 | 0.00 | 0.71 | 0.71 | 92 | 1010.5 |
| 20260506212205 | 6 | 224 | 4.8 | 12.9 | 0.00 | 0.71 | 0.71 | 93 | 1010.4 |
| 20260506211704 | 6 | 248 | 3.2 | 11.3 | 0.00 | 0.71 | 0.71 | 94 | 1010.4 |
| 20260506211205 | 6 | 264 | 0.0 | 4.8 | 0.00 | 0.71 | 0.71 | 94 | 1010.4 |
| 20260506210205 | 6 | 264 | 1.6 | 6.4 | 0.00 | 0.71 | 0.71 | 94 | 1010.3 |
| 20260506205705 | 6 | 232 | 3.2 | 6.4 | 0.00 | 0.71 | 0.71 | 94 | 1010.3 |
| 20260506205205 | 6 | 269 | 3.2 | 6.4 | 0.00 | 0.71 | 0.71 | 94 | 1010.3 |
| 20260506204707 | 7 | 295 | 3.2 | 4.8 | 0.00 | 0.71 | 0.71 | 94 | 1010.2 |
| 20260506204205 | 7 | 310 | 1.6 | 4.8 | 0.00 | 0.71 | 0.71 | 94 | 1010.1 |
| 20260506202706 | 7 | 289 | 3.2 | 3.2 | 0.00 | 0.74 | 0.71 | 94 | 1010.2 |
| 20260506202205 | 7 | 271 | 1.6 | 4.8 | 0.00 | 0.74 | 0.71 | 94 | 1010.2 |
| 20260506201705 | 7 | 280 | 1.6 | 4.8 | 0.00 | 0.74 | 0.71 | 94 | 1010.2 |
| 20260506201205 | 7 | 271 | 1.6 | 4.8 | 0.00 | 0.74 | 0.71 | 94 | 1010.2 |
| 20260506200705 | 7 | 278 | 1.6 | 4.8 | 0.00 | 0.74 | 0.71 | 94 | 1010.2 |
| 20260506200205 | 7 | 236 | 1.6 | 4.8 | 0.00 | 0.74 | 0.71 | 94 | 1010.1 |
| 20260506195705 | 7 | 281 | 1.6 | 4.8 | 0.03 | 0.74 | 0.71 | 94 | 1010.1 |
| 20260506194706 | 7 | 262 | 1.6 | 6.4 | 0.03 | 0.74 | 0.71 | 94 | 1010.0 |
| 20260506194205 | 7 | 271 | 1.6 | 6.4 | 0.03 | 0.74 | 0.71 | 94 | 1010.0 |
| 20260506193705 | 7 | 290 | 1.6 | 3.2 | 0.03 | 0.74 | 0.71 | 94 | 1010.0 |
| 20260506193205 | 7 | 283 | 1.6 | 3.2 | 0.03 | 0.74 | 0.71 | 94 | 1010.0 |
| 20260506192707 | 7 | 271 | 1.6 | 3.2 | 0.03 | 0.74 | 0.71 | 94 | 1010.0 |
| 20260506192205 | 7 | 304 | 1.6 | 8.0 | 0.03 | 0.74 | 0.71 | 94 | 1009.7 |
| 20260506191704 | 7 | 298 | 1.6 | 8.0 | 0.03 | 0.74 | 0.71 | 94 | 1009.7 |
| 20260506191205 | 7 | 280 | 1.6 | 8.0 | 0.03 | 0.74 | 0.71 | 94 | 1009.7 |
| 20260506190705 | 7 | 271 | 1.6 | 4.8 | 0.03 | 0.74 | 0.71 | 94 | 1009.6 |
| 20260506190205 | 7 | 254 | 1.6 | 4.8 | 0.03 | 0.74 | 0.71 | 94 | 1009.6 |
| 20260506185705 | 7 | 277 | 1.6 | 8.0 | 0.00 | 0.71 | 0.71 | 93 | 1009.5 |
| 20260506184205 | 7 | 257 | 1.6 | 6.4 | 0.03 | 0.71 | 0.71 | 93 | 1009.4 |
| 20260506183705 | 7 | 227 | 1.6 | 3.2 | 0.03 | 0.74 | 0.71 | 93 | 1009.4 |
| 20260506182705 | 7 | 245 | 1.6 | 4.8 | 0.05 | 0.79 | 0.71 | 92 | 1009.3 |
| 20260506181705 | 7 | 250 | 4.8 | 9.7 | 0.05 | 0.79 | 0.71 | 91 | 1009.2 |
| 20260506181224 | 7 | 250 | 4.8 | 9.7 | 0.05 | 0.84 | 0.71 | 91 | 1009.2 |
| 20260506180706 | 7 | 237 | 3.2 | 8.0 | 0.05 | 0.86 | 0.71 | 91 | 1009.1 |
| 20260506180205 | 7 | 245 | 4.8 | 8.0 | 0.05 | 0.86 | 0.71 | 91 | 1009.1 |
| 20260506175705 | 7 | 221 | 4.8 | 8.0 | 0.03 | 0.84 | 0.69 | 91 | 1009.0 |
| 20260506174705 | 7 | 220 | 3.2 | 8.0 | 0.03 | 0.84 | 0.69 | 91 | 1008.9 |
| 20260506174205 | 7 | 240 | 3.2 | 11.3 | 0.05 | 0.84 | 0.69 | 91 | 1008.9 |
| 20260506172708 | 7 | 228 | 4.8 | 12.9 | 0.05 | 0.81 | 0.66 | 91 | 1008.7 |
| 20260506172205 | 7 | 261 | 4.8 | 12.9 | 0.05 | 0.81 | 0.66 | 91 | 1008.6 |
| 20260506171205 | 7 | 266 | 4.8 | 12.9 | 0.05 | 0.81 | 0.66 | 91 | 1008.4 |
| 20260506170706 | 7 | 243 | 4.8 | 12.9 | 0.05 | 0.81 | 0.66 | 91 | 1008.3 |
| 20260506165205 | 7 | 230 | 4.8 | 9.7 | 0.08 | 0.81 | 0.66 | 91 | 1008.3 |
| 20260506164706 | 7 | 221 | 3.2 | 9.7 | 0.08 | 0.81 | 0.66 | 91 | 1008.3 |
| 20260506164205 | 7 | 247 | 3.2 | 9.7 | 0.08 | 0.79 | 0.64 | 91 | 1008.3 |
| 20260506163705 | 7 | 221 | 3.2 | 11.3 | 0.10 | 0.79 | 0.64 | 91 | 1008.3 |
| 20260506162705 | 7 | 247 | 3.2 | 11.3 | 0.08 | 0.79 | 0.61 | 91 | 1008.3 |
| 20260506162216 | 7 | 228 | 3.2 | 6.4 | 0.10 | 0.79 | 0.61 | 91 | 1008.4 |
| 20260506161706 | 7 | 236 | 3.2 | 6.4 | 0.10 | 0.79 | 0.61 | 91 | 1008.3 |
| 20260506160705 | 7 | 249 | 3.2 | 11.3 | 0.10 | 0.76 | 0.61 | 91 | 1008.3 |
| 20260506160226 | 7 | 248 | 3.2 | 11.3 | 0.10 | 0.76 | 0.61 | 90 | 1008.3 |
| 20260506155705 | 7 | 230 | 3.2 | 6.4 | 0.08 | 0.74 | 0.58 | 90 | 1008.3 |
| 20260506155205 | 7 | 287 | 3.2 | 6.4 | 0.10 | 0.74 | 0.58 | 90 | 1008.4 |
| 20260506154706 | 7 | 263 | 3.2 | 6.4 | 0.08 | 0.71 | 0.56 | 90 | 1008.3 |
| 20260506154205 | 8 | 300 | 3.2 | 6.4 | 0.08 | 0.71 | 0.56 | 90 | 1008.3 |
| 20260506153704 | 8 | 262 | 3.2 | 6.4 | 0.08 | 0.71 | 0.53 | 89 | 1008.3 |
| 20260506153205 | 8 | 248 | 3.2 | 4.8 | 0.08 | 0.71 | 0.53 | 90 | 1008.3 |
| 20260506152705 | 8 | 283 | 1.6 | 4.8 | 0.08 | 0.71 | 0.53 | 90 | 1008.3 |
| 20260506152205 | 8 | 280 | 1.6 | 4.8 | 0.05 | 0.69 | 0.51 | 90 | 1008.2 |
| 20260506151705 | 8 | 299 | 1.6 | 4.8 | 0.05 | 0.69 | 0.51 | 90 | 1008.2 |
| 20260506151205 | 8 | 229 | 1.6 | 12.9 | 0.05 | 0.71 | 0.51 | 90 | 1008.2 |
| 20260506150705 | 8 | 307 | 3.2 | 14.5 | 0.05 | 0.76 | 0.51 | 90 | 1008.1 |
| 20260506150205 | 8 | 198 | 4.8 | 14.5 | 0.05 | 0.86 | 0.51 | 88 | 1008.2 |
| 20260506145705 | 8 | 288 | 4.8 | 14.5 | 0.05 | 0.86 | 0.51 | 88 | 1008.1 |
| 20260506145205 | 8 | 255 | 3.2 | 8.0 | 0.05 | 0.84 | 0.48 | 89 | 1008.1 |
| 20260506143205 | 8 | 256 | 4.8 | 8.0 | 0.03 | 0.81 | 0.46 | 88 | 1008.0 |
| 20260506142705 | 8 | 240 | 3.2 | 6.4 | 0.03 | 0.81 | 0.46 | 90 | 1008.0 |
| 20260506141705 | 8 | 269 | 3.2 | 8.0 | 0.05 | 0.81 | 0.46 | 89 | 1007.9 |
| 20260506141205 | 8 | 274 | 3.2 | 6.4 | 0.05 | 0.81 | 0.46 | 89 | 1007.9 |
| 20260506140205 | 8 | 274 | 1.6 | 9.7 | 0.03 | 0.79 | 0.43 | 90 | 1007.8 |
| 20260506135705 | 8 | 298 | 1.6 | 9.7 | 0.03 | 0.79 | 0.43 | 89 | 1007.8 |
| 20260506134705 | 8 | 207 | 3.2 | 16.1 | 0.03 | 0.79 | 0.43 | 89 | 1007.8 |
| 20260506134205 | 8 | 248 | 4.8 | 16.1 | 0.03 | 0.79 | 0.43 | 89 | 1007.8 |
| 20260506133705 | 8 | 199 | 6.4 | 20.9 | 0.03 | 0.79 | 0.43 | 89 | 1007.8 |
| 20260506133205 | 8 | 200 | 8.0 | 20.9 | 0.03 | 0.79 | 0.43 | 88 | 1007.9 |
| 20260506132205 | 9 | 225 | 8.0 | 17.7 | 0.03 | 0.79 | 0.43 | 89 | 1007.8 |
| 20260506131705 | 10 | 219 | 4.8 | 12.9 | 0.00 | 0.79 | 0.43 | 91 | 1007.7 |
| 20260506130705 | 10 | 312 | 6.4 | 14.5 | 0.03 | 0.79 | 0.43 | 90 | 1007.5 |
| 20260506130205 | 10 | 252 | 4.8 | 14.5 | 0.03 | 0.79 | 0.43 | 91 | 1007.5 |
| 20260506123705 | 10 | 231 | 3.2 | 6.4 | 0.05 | 0.79 | 0.43 | 91 | 1007.1 |
| 20260506123205 | 10 | 243 | 3.2 | 8.0 | 0.05 | 0.79 | 0.43 | 91 | 1007.0 |
| 20260506122705 | 10 | 248 | 3.2 | 11.3 | 0.05 | 0.79 | 0.43 | 92 | 1007.1 |
| 20260506122205 | 10 | 220 | 4.8 | 11.3 | 0.05 | 0.79 | 0.43 | 92 | 1007.1 |
| 20260506121705 | 10 | 190 | 4.8 | 11.3 | 0.05 | 0.79 | 0.43 | 91 | 1007.0 |
| 20260506121205 | 10 | 188 | 3.2 | 11.3 | 0.05 | 0.79 | 0.43 | 92 | 1007.0 |
| 20260506115205 | 10 | 273 | 4.8 | 8.0 | 0.05 | 0.76 | 0.41 | 92 | 1006.8 |
| 20260506114705 | 10 | 321 | 3.2 | 8.0 | 0.08 | 0.76 | 0.41 | 94 | 1006.9 |
| 20260506114205 | 10 | 279 | 3.2 | 8.0 | 0.05 | 0.74 | 0.38 | 93 | 1006.8 |
| 20260506113705 | 10 | 271 | 3.2 | 8.0 | 0.05 | 0.71 | 0.36 | 93 | 1006.8 |
| 20260506113205 | 10 | 272 | 3.2 | 6.4 | 0.05 | 0.71 | 0.36 | 93 | 1006.8 |
| 20260506112705 | 10 | 293 | 1.6 | 9.7 | 0.18 | 0.71 | 0.36 | 93 | 1006.8 |
| 20260506112205 | 10 | 279 | 3.2 | 9.7 | 0.33 | 0.71 | 0.36 | 93 | 1006.7 |
| 20260506111705 | 10 | 295 | 3.2 | 11.3 | 0.36 | 0.71 | 0.36 | 93 | 1006.8 |
| 20260506111205 | 10 | 266 | 4.8 | 11.3 | 0.36 | 0.71 | 0.36 | 93 | 1006.8 |
| 20260506110705 | 10 | 331 | 6.4 | 11.3 | 0.36 | 0.71 | 0.36 | 93 | 1006.8 |
| 20260506110206 | 10 | 262 | 6.4 | 11.3 | 0.36 | 0.71 | 0.36 | 92 | 1006.9 |
| 20260506105705 | 10 | 296 | 4.8 | 12.9 | 0.33 | 0.71 | 0.33 | 92 | 1006.8 |
| 20260506105205 | 10 | 282 | 6.4 | 12.9 | 0.33 | 0.69 | 0.33 | 92 | 1006.9 |
| 20260506104706 | 10 | 297 | 6.4 | 12.9 | 0.33 | 0.69 | 0.33 | 92 | 1006.8 |
| 20260506103705 | 10 | 313 | 3.2 | 11.3 | 0.33 | 0.69 | 0.33 | 91 | 1006.9 |
| 20260506103205 | 11 | 294 | 3.2 | 11.3 | 0.28 | 0.64 | 0.28 | 88 | 1006.8 |
| 20260506102705 | 11 | 234 | 4.8 | 11.3 | 0.15 | 0.51 | 0.15 | 88 | 1006.8 |
| 20260506102205 | 11 | 244 | 4.8 | 11.3 | 0.00 | 0.36 | 0.00 | 87 | 1006.8 |
| 20260506101705 | 12 | 236 | 4.8 | 11.3 | 0.00 | 0.36 | 0.00 | 86 | 1006.7 |
| 20260506101205 | 12 | 264 | 6.4 | 11.3 | 0.00 | 0.36 | 0.00 | 84 | 1006.7 |
| 20260506100705 | 13 | 354 | 4.8 | 11.3 | 0.00 | 0.36 | 0.00 | 81 | 1006.6 |
| 20260506100235 | 13 | 311 | 1.6 | 4.8 | 0.00 | 0.36 | 0.00 | 77 | 1006.6 |
| 20260506095705 | 13 | 180 | 1.6 | 4.8 | 0.00 | 0.36 | 0.00 | 77 | 1006.6 |
| 20260506094706 | 13 | 167 | 0.0 | 3.2 | 0.00 | 0.36 | 0.00 | 77 | 1006.6 |
| 20260506094205 | 13 | 134 | 0.0 | 1.6 | 0.00 | 0.36 | 0.00 | 77 | 1006.6 |
| 20260506093705 | 13 | 134 | 0.0 | 0.0 | 0.00 | 0.36 | 0.00 | 74 | 1006.5 |
| 20260506092705 | 13 | 134 | 0.0 | 1.6 | 0.00 | 0.36 | 0.00 | 73 | 1006.6 |
| 20260506092205 | 13 | 134 | 0.0 | 1.6 | 0.00 | 0.36 | 0.00 | 73 | 1006.6 |
| 20260506091705 | 13 | 134 | 0.0 | 1.6 | 0.00 | 0.36 | 0.00 | 75 | 1006.6 |
| 20260506091205 | 13 | 134 | 0.0 | 1.6 | 0.00 | 0.36 | 0.00 | 76 | 1006.7 |
| 20260506090705 | 13 | 134 | 0.0 | 3.2 | 0.00 | 0.36 | 0.00 | 74 | 1006.6 |
| 20260506090205 | 13 | 147 | 0.0 | 3.2 | 0.00 | 0.36 | 0.00 | 73 | 1006.6 |
| 20260506085705 | 13 | 147 | 0.0 | 3.2 | 0.00 | 0.36 | 0.00 | 76 | 1006.6 |
| 20260506085205 | 13 | 133 | 0.0 | 3.2 | 0.00 | 0.36 | 0.00 | 78 | 1006.6 |
| 20260506084705 | 13 | 162 | 0.0 | 3.2 | 0.00 | 0.36 | 0.00 | 80 | 1006.6 |
| 20260506084205 | 12 | 180 | 1.6 | 3.2 | 0.00 | 0.36 | 0.00 | 80 | 1006.6 |
| 20260506083705 | 12 | 117 | 1.6 | 3.2 | 0.00 | 0.36 | 0.00 | 79 | 1006.5 |
| 20260506083205 | 12 | 189 | 0.0 | 4.8 | 0.00 | 0.36 | 0.00 | 82 | 1006.4 |
| 20260506082705 | 12 | 180 | 1.6 | 4.8 | 0.00 | 0.36 | 0.00 | 82 | 1006.3 |
| 20260506082205 | 12 | 180 | 1.6 | 4.8 | 0.00 | 0.36 | 0.00 | 83 | 1006.4 |
| 20260506081705 | 12 | 155 | 1.6 | 4.8 | 0.00 | 0.36 | 0.00 | 87 | 1006.3 |
| 20260506081205 | 11 | 176 | 0.0 | 3.2 | 0.00 | 0.36 | 0.00 | 87 | 1006.3 |
| 20260506080706 | 11 | 127 | 0.0 | 3.2 | 0.00 | 0.36 | 0.00 | 87 | 1006.4 |
| 20260506080205 | 11 | 95 | 0.0 | 3.2 | 0.00 | 0.36 | 0.00 | 88 | 1006.4 |
| 20260506073205 | 10 | 95 | 0.0 | 1.6 | 0.00 | 0.36 | 0.00 | 96 | 1006.6 |
| 20260506072705 | 9 | 95 | 0.0 | 1.6 | 0.00 | 0.36 | 0.00 | 97 | 1006.6 |
| 20260506072205 | 9 | 95 | 0.0 | 1.6 | 0.00 | 0.36 | 0.00 | 97 | 1006.6 |
| 20260506071705 | 9 | 67 | 0.0 | 0.0 | 0.00 | 0.36 | 0.00 | 97 | 1006.6 |
| 20260506071205 | 8 | 66 | 0.0 | 0.0 | 0.00 | 0.36 | 0.00 | 97 | 1006.6 |
| 20260506070705 | 8 | 66 | 0.0 | 0.0 | 0.00 | 0.36 | 0.00 | 97 | 1006.6 |
| 20260506070205 | 8 | 66 | 0.0 | 0.0 | 0.00 | 0.36 | 0.00 | 97 | 1006.6 |
| 20260506062205 | 7 | 1 | 0.0 | 0.0 | 0.00 | 0.36 | 0.00 | 98 | 1006.6 |
| 20260506061705 | 7 | 1 | 0.0 | 1.6 | 0.00 | 0.38 | 0.00 | 98 | 1006.6 |
| 20260506061205 | 7 | 1 | 0.0 | 1.6 | 0.00 | 0.38 | 0.00 | 98 | 1006.7 |
| 20260506060705 | 7 | 1 | 0.0 | 1.6 | 0.00 | 0.38 | 0.00 | 98 | 1006.8 |
| 20260506051205 | 6 | 46 | 0.0 | 3.2 | 0.00 | 0.38 | 0.00 | 97 | 1006.9 |
| 20260506050705 | 6 | 264 | 0.0 | 0.0 | 0.00 | 0.38 | 0.00 | 97 | 1006.8 |
| 20260506050205 | 6 | 264 | 0.0 | 0.0 | 0.00 | 0.38 | 0.00 | 97 | 1006.8 |
| 20260506044705 | 5 | 254 | 0.0 | 1.6 | 0.00 | 0.38 | 0.00 | 97 | 1006.9 |
| 20260506044205 | 5 | 254 | 0.0 | 1.6 | 0.00 | 0.38 | 0.00 | 97 | 1007.0 |
| 20260506043705 | 5 | 254 | 0.0 | 3.2 | 0.00 | 0.38 | 0.00 | 97 | 1007.0 |
| 20260506043206 | 5 | 254 | 0.0 | 3.2 | 0.00 | 0.38 | 0.00 | 97 | 1007.1 |
| 20260506042705 | 5 | 254 | 0.0 | 3.2 | 0.00 | 0.38 | 0.00 | 97 | 1007.1 |
| 20260506041705 | 5 | 254 | 0.0 | 1.6 | 0.00 | 0.38 | 0.00 | 97 | 1007.0 |
| 20260506041205 | 5 | 254 | 0.0 | 3.2 | 0.00 | 0.38 | 0.00 | 97 | 1007.1 |
| 20260506040705 | 5 | 254 | 0.0 | 3.2 | 0.00 | 0.38 | 0.00 | 97 | 1007.2 |
| 20260506040205 | 5 | 254 | 0.0 | 3.2 | 0.00 | 0.38 | 0.00 | 97 | 1007.2 |
| 20260506035705 | 5 | 313 | 0.0 | 3.2 | 0.00 | 0.38 | 0.00 | 97 | 1007.2 |
| 20260506035204 | 5 | 253 | 0.0 | 3.2 | 0.00 | 0.38 | 0.00 | 97 | 1007.4 |
| 20260506034205 | 5 | 314 | 0.0 | 1.6 | 0.00 | 0.38 | 0.00 | 97 | 1007.5 |
| 20260506033704 | 5 | 314 | 0.0 | 1.6 | 0.00 | 0.38 | 0.00 | 97 | 1007.5 |
| 20260506033205 | 5 | 314 | 0.0 | 0.0 | 0.00 | 0.38 | 0.00 | 97 | 1007.5 |
| 20260506032205 | 5 | 314 | 0.0 | 0.0 | 0.00 | 0.38 | 0.00 | 96 | 1007.5 |
| 20260506031705 | 5 | 314 | 0.0 | 3.2 | 0.00 | 0.38 | 0.00 | 97 | 1007.4 |
| 20260506031205 | 5 | 314 | 0.0 | 3.2 | 0.00 | 0.38 | 0.00 | 97 | 1007.4 |
| 20260506030205 | 5 | 314 | 0.0 | 3.2 | 0.00 | 0.38 | 0.00 | 97 | 1007.5 |
| 20260506025705 | 5 | 314 | 0.0 | 3.2 | 0.00 | 0.38 | 0.00 | 97 | 1007.6 |
| 20260506025206 | 5 | 314 | 0.0 | 3.2 | 0.00 | 0.38 | 0.00 | 97 | 1007.8 |
| 20260506024705 | 5 | 314 | 0.0 | 1.6 | 0.00 | 0.38 | 0.00 | 97 | 1007.8 |
| 20260506024205 | 5 | 314 | 0.0 | 1.6 | 0.00 | 0.38 | 0.00 | 97 | 1007.8 |
| 20260506023726 | 5 | 314 | 0.0 | 1.6 | 0.00 | 0.38 | 0.00 | 97 | 1007.8 |
| 20260506023205 | 5 | 314 | 0.0 | 3.2 | 0.00 | 0.38 | 0.00 | 97 | 1007.9 |
| 20260506022206 | 5 | 314 | 0.0 | 3.2 | 0.00 | 0.38 | 0.00 | 96 | 1008.1 |
| 20260506021705 | 6 | 314 | 1.6 | 3.2 | 0.00 | 0.38 | 0.00 | 96 | 1008.1 |
| 20260506021205 | 6 | 314 | 0.0 | 3.2 | 0.00 | 0.38 | 0.00 | 97 | 1008.1 |
| 20260506020705 | 6 | 314 | 0.0 | 0.0 | 0.00 | 0.38 | 0.00 | 97 | 1008.1 |
| 20260506020205 | 6 | 314 | 0.0 | 0.0 | 0.00 | 0.38 | 0.00 | 97 | 1008.0 |
| 20260506015705 | 6 | 314 | 0.0 | 3.2 | 0.00 | 0.38 | 0.00 | 97 | 1008.1 |
| 20260506015205 | 6 | 314 | 0.0 | 3.2 | 0.00 | 0.38 | 0.00 | 97 | 1008.1 |
| 20260506014706 | 6 | 314 | 0.0 | 1.6 | 0.00 | 0.38 | 0.00 | 97 | 1008.2 |
| 20260506013705 | 6 | 314 | 0.0 | 3.2 | 0.00 | 0.38 | 0.00 | 97 | 1008.2 |
| 20260506013205 | 6 | 314 | 0.0 | 3.2 | 0.00 | 0.38 | 0.00 | 97 | 1008.3 |
| 20260506012705 | 6 | 314 | 0.0 | 4.8 | 0.00 | 0.38 | 0.00 | 97 | 1008.4 |
| 20260506012205 | 6 | 314 | 1.6 | 4.8 | 0.00 | 0.38 | 0.00 | 97 | 1008.4 |
| 20260506011705 | 6 | 314 | 1.6 | 4.8 | 0.00 | 0.38 | 0.00 | 97 | 1008.6 |
| 20260506011205 | 6 | 314 | 0.0 | 3.2 | 0.00 | 0.38 | 0.00 | 97 | 1008.6 |
| 20260506010706 | 6 | 306 | 0.0 | 1.6 | 0.00 | 0.38 | 0.00 | 97 | 1008.9 |
| 20260506010205 | 6 | 306 | 0.0 | 3.2 | 0.00 | 0.38 | 0.00 | 97 | 1008.8 |
| 20260506005706 | 6 | 306 | 0.0 | 3.2 | 0.00 | 0.38 | 0.00 | 97 | 1008.4 |
| 20260506005206 | 6 | 306 | 0.0 | 3.2 | 0.00 | 0.38 | 0.00 | 97 | 1008.6 |
| 20260506004705 | 6 | 306 | 0.0 | 0.0 | 0.00 | 0.38 | 0.00 | 97 | 1008.7 |
| 20260506004205 | 5 | 306 | 0.0 | 0.0 | 0.00 | 0.38 | 0.00 | 96 | 1008.8 |
| 20260506003705 | 5 | 306 | 0.0 | 0.0 | 0.00 | 0.38 | 0.00 | 96 | 1008.7 |
| 20260506002705 | 5 | 306 | 0.0 | 0.0 | 0.00 | 0.38 | 0.00 | 96 | 1008.8 |
| 20260506002206 | 5 | 306 | 0.0 | 0.0 | 0.00 | 0.38 | 0.00 | 96 | 1008.7 |
| 20260506001705 | 5 | 306 | 0.0 | 0.0 | 0.00 | 0.38 | 0.00 | 96 | 1008.8 |
| 20260506000705 | 5 | 306 | 0.0 | 1.6 | 0.00 | 0.38 | 0.00 | 96 | 1009.0 |
| 20260506000205 | 6 | 306 | 0.0 | 1.6 | 0.00 | 0.38 | 0.00 | 96 | 1009.0 |
| 20260505235705 | 6 | 306 | 0.0 | 3.2 | 0.00 | 0.38 | 0.00 | 96 | 1009.0 |
| 20260505235204 | 6 | 306 | 0.0 | 3.2 | 0.00 | 0.38 | 0.00 | 96 | 1009.0 |
| 20260505234732 | 6 | 306 | 0.0 | 3.2 | 0.00 | 0.38 | 0.00 | 96 | 1009.1 |
| 20260505234205 | 6 | 306 | 0.0 | 0.0 | 0.00 | 0.38 | 0.00 | 96 | 1009.2 |
| 20260505233704 | 6 | 306 | 0.0 | 0.0 | 0.00 | 0.38 | 0.00 | 96 | 1009.2 |